Location: Broekland
(52.3610°N, 6.2005°E)
Time: 16:01:22
(UTC+00:00)

ACS3 Solar Sail - Pass Details

Date: 27 January 2026
Orbit: 900 x 968 km, 97.2° (Epoch: 10 February)

Event Time Altitude Azimuth Distance (km) Brightness Sun altitude
Rises 03:51:03 0° 7° (N) 3,628 5.0 -32.2°
Reaches altitude 10° 03:54:04 10° 352° (N) 2,666 4.1 -31.8°
Enters shadow 03:54:24 11° 350° (N) 2,575 4.0 -31.7°
